Stuttgart, AR

5:01 PM CDT on May 26, 2017 (GMT -0500)
Stuttgart Municipal

Weather History for KSGT - October, 2012

Change the Weather History Date:

Tuesday, October 23, 2012

  Actual Average Record
Temperature  
Mean Temperature - -  
Max Temperature - 71 °F 89 °F (2003)
Min Temperature - 50 °F 35 °F (2006)
Moisture  
Dew Point -    
Average Humidity    
Maximum Humidity    
Minimum Humidity    
Precipitation  
Precipitation 0.00 in - - ()
Sea Level Pressure  
Sea Level Pressure 30.02 in    
Wind  
Wind Speed 9 mph (South)    
Max Wind Speed 17 mph    
Max Gust Speed 22 mph    
Visibility 10 miles    
Events      
Averages and records for this station are not official NWS values.
T = Trace of Precipitation, MM = Missing Value Source: NWS Daily Summary

Daily Weather History Graph

Daily Weather History Graph

Search for Another Location

Airport or City:

Trip Planner

Search our weather history database for the weather conditions in past years. The results will help you decide how hot, cold, wet, or windy it might be!

Date:

Astronomy

Oct. 23, 2012 Rise Set
Actual Time 7:19 AM CDT 6:21 PM CDT
Civil Twilight 6:53 AM CDT 6:47 PM CDT
Nautical Twilight 6:23 AM CDT 7:16 PM CDT
Astronomical Twilight 5:54 AM CDT 7:45 PM CDT
Moon 2:52 PM CDT (10/23) 1:25 AM CDT (10/23)
Length of Visible Light 11h 53m
Length of Day
11h 02m
Waxing Gibbous, 67% of the Moon is Illuminated
Oct 23
Waxing Gibbous
Oct 29
Full
Nov 6
Last Quarter
Nov 13
New
Nov 20
First Quarter

Hourly Weather History & Observations

Time (CDT) Temp. Dew Point Humidity Pressure Visibility Wind Dir Wind Speed Gust Speed Precip Events Conditions
12:15 AM - - N/A% 30.01 in 10.0 mi SSE 6.9 mph - N/A   Clear
12:35 AM - - N/A% 30.01 in 10.0 mi SSE 6.9 mph - N/A   Clear
12:56 AM - - N/A% 30.02 in 10.0 mi South 5.8 mph - N/A   Clear
1:15 AM - - N/A% 30.01 in 10.0 mi SSE 5.8 mph - N/A   Clear
1:35 AM - - N/A% 30.02 in 10.0 mi SSE 4.6 mph - N/A   Clear
1:55 AM - - N/A% 30.02 in 10.0 mi SE 3.5 mph - N/A   Partly Cloudy
2:15 AM - - N/A% 30.03 in 10.0 mi Calm Calm - N/A   Mostly Cloudy
2:56 AM - - N/A% 30.03 in 10.0 mi SSE 6.9 mph - N/A   Overcast
3:35 AM - - N/A% 30.02 in 10.0 mi SSE 8.1 mph - N/A   Overcast
3:56 AM - - N/A% 30.03 in 10.0 mi South 6.9 mph - N/A   Overcast
4:15 AM - - N/A% 30.02 in 10.0 mi South 9.2 mph - N/A   Overcast
4:35 AM - - N/A% 30.02 in 10.0 mi South 9.2 mph - N/A   Overcast
4:56 AM - - N/A% 30.03 in 10.0 mi South 10.4 mph - N/A   Overcast
5:15 AM - - N/A% 30.03 in 10.0 mi South 9.2 mph - N/A   Overcast
5:55 AM - - N/A% 30.04 in 10.0 mi SSE 9.2 mph - N/A   Partly Cloudy
6:35 AM - - N/A% 30.05 in 10.0 mi South 9.2 mph - N/A   Scattered Clouds
7:15 AM - - N/A% 30.05 in 10.0 mi South 8.1 mph - N/A   Scattered Clouds
7:35 AM - - N/A% 30.05 in 10.0 mi South 9.2 mph - N/A   Mostly Cloudy
7:56 AM - - N/A% 30.06 in 10.0 mi SSE 8.1 mph - N/A   Partly Cloudy
8:15 AM - - N/A% 30.06 in 10.0 mi SSE 5.8 mph - N/A   Clear
8:35 AM - - N/A% 30.07 in 10.0 mi SSE 6.9 mph - N/A   Clear
8:56 AM - - N/A% 30.07 in 10.0 mi South 10.4 mph - N/A   Clear
9:15 AM - - N/A% 30.07 in 10.0 mi South 13.8 mph - N/A   Clear
9:35 AM - - N/A% 30.07 in 10.0 mi South 15.0 mph - N/A   Clear
9:56 AM - - N/A% 30.08 in 10.0 mi SSW 16.1 mph - N/A   Partly Cloudy
10:15 AM - - N/A% 30.08 in 10.0 mi SSW 17.3 mph - N/A   Scattered Clouds
11:15 AM - - N/A% 30.07 in 10.0 mi SSW 16.1 mph - N/A   Scattered Clouds
11:35 AM - - N/A% 30.07 in 10.0 mi South 12.7 mph - N/A   Clear
11:56 AM - - N/A% 30.06 in 10.0 mi South 15.0 mph 18.4 mph N/A   Scattered Clouds
12:15 PM - - N/A% 30.06 in 10.0 mi South 15.0 mph - N/A   Partly Cloudy
12:35 PM - - N/A% 30.05 in 10.0 mi South 15.0 mph 19.6 mph N/A   Clear
1:15 PM - - N/A% 30.03 in 10.0 mi South 16.1 mph 19.6 mph N/A   Clear
1:36 PM - - N/A% 30.02 in 10.0 mi South 15.0 mph 20.7 mph N/A   Clear
1:55 PM - - N/A% 30.01 in 10.0 mi South 12.7 mph - N/A   Clear
2:15 PM - - N/A% 30.00 in 10.0 mi South 16.1 mph 21.9 mph N/A   Clear
2:36 PM - - N/A% 30.00 in 10.0 mi South 13.8 mph 18.4 mph N/A   Clear
2:55 PM - - N/A% 29.99 in 10.0 mi South 16.1 mph - N/A   Clear
3:15 PM - - N/A% 29.99 in 10.0 mi South 16.1 mph 19.6 mph N/A   Clear
3:55 PM - - N/A% 29.99 in 10.0 mi South 12.7 mph 18.4 mph N/A   Clear
4:15 PM - - N/A% 29.98 in 10.0 mi South 15.0 mph - N/A   Clear
4:55 PM - - N/A% 29.97 in 10.0 mi SSE 15.0 mph - N/A   Clear
5:35 PM - - N/A% 29.97 in 10.0 mi SSE 12.7 mph - N/A   Clear
5:55 PM - - N/A% 29.98 in 10.0 mi SSE 10.4 mph - N/A   Clear
6:15 PM - - N/A% 29.98 in 10.0 mi SSE 9.2 mph - N/A   Clear
6:35 PM - - N/A% 29.98 in 10.0 mi SSE 8.1 mph - N/A   Clear
6:55 PM - - N/A% 29.99 in 10.0 mi SSE 9.2 mph - N/A   Clear
7:35 PM - - N/A% 30.00 in 10.0 mi SSE 10.4 mph - N/A   Clear
7:55 PM - - N/A% 30.00 in 10.0 mi South 12.7 mph - N/A   Clear
8:35 PM - - N/A% 30.00 in 10.0 mi South 9.2 mph - N/A   Clear
8:55 PM - - N/A% 30.01 in 10.0 mi South 9.2 mph - N/A   Clear
9:35 PM - - N/A% 30.01 in 10.0 mi South 8.1 mph - N/A   Clear
9:55 PM - - N/A% 30.01 in 10.0 mi South 8.1 mph - N/A   Clear
10:35 PM - - N/A% 30.01 in 10.0 mi South 6.9 mph - N/A   Clear
10:55 PM - - N/A% 30.01 in 10.0 mi South 6.9 mph - N/A   Clear
11:35 PM - - N/A% 30.02 in 10.0 mi Calm Calm - N/A   Clear
11:55 PM - - N/A% 30.02 in 9.0 mi SE 4.6 mph - N/A   Clear